Showing default

COSMOS 2252, 22687

Orbit data source: Space-Track

COSMOS 2252, 22687 is a payload satellite owned by VKS (CIS) in LEO that was launched on Thu, 24 Jun 1993 UTC via a TSIKLON-3 launch vehicle from the Plesetsk Missile And Space Complex (PKMTR). Payload-class satellites include a variety of spacecraft equipped with specific instruments for various scientific and technological missions. These include communications satellites like Starlink; space stations such as the ISS; scientific satellites like the Hubble; Earth observation satellites from companies like Planet Labs, Umbra, and HawkEye 360; GPS; miniature CubeSats for education and research; and military/defense satellites.

Loading next visibility...
Identifier
22687, 1993-038A
Orbit
LEO
Country
Flag of CISCIS
Related business
Manufacturer
NPO PM
Mission
Defense Communications
Bus & Motor
STRELA-3, Unknown motor
Mass
225 kg wet, 225 kg dry
Launch date (UTC)
1993-06-24 (32 years ago)
Launch vehicle
TSIKLON-3
Launch site
Plesetsk Missile And Space Complex (PKMTR)
Object type
Payload
Rocket body
Debris
Shape & HBR
Cyl, 0.8 m
Radar Cross Section
1.257 m², Medium (>0.1 m² and < 1m²)

Expand to show TLE details & history
Last TLE update: 15 hours ago

TLE from 15 hours ago
0 COSMOS 2252
1 22687U 93038A   25258.79539926  .00000041  00000-0  16513-3 0  9994
2 22687  82.5824  43.2879 0007325 235.1189 245.4148 12.63323343485875
Epoch: 2025-09-15T19:05Z
TLE epoch observation values (Epoch: 2025-09-15T19:05:22.496Z)
Latitude
58.82621°
Longitude
-70.41519°
Altitude
1,421.539 km
Speed
7.154 km/s
True Right ascension
14h 03m 41s
True Declination
58° 41' 12"
Sunlit
Object was in daylight at epoch
Visualization orbit readout
Latitude
Unknown
Longitude
Unknown
Altitude
Unknown
Speed
Unknown
Apparent Right ascension
Unknown
Apparent Declination
Unknown
Sunlit
N/A
Visualization observer readout
Local Sidereal Time
02:38:52
Azimuth
Unknown
Elevation
Unknown
Doppler factor
Unknown
Orbital elements
Apogee altitude
1,412.279 km
Perigee altitude
1,400.874 km
Semi-major axis
7,784.713 km
Eccentricity
0.00073
Inclination
82.5824°
RAAN
43.2879°
Arg. of periapsis
235.1189°
True anomaly
245.3385°
Mean anomaly
245.4148°
Eccentric anomaly
245.37665°
Mean motion
3.15994 °/min
Orbital period
113.93 mins
BSTAR
0.00016513
Loading maneuver chart data...
Computing Atmospheric mass density...
Loading historical data...
Loading historical data...
Loading historical data...
Loading historical data...
Loading historical data...
Loading historical data...
Loading historical data...

Documentation

Showing up to 5 results
|